Regional Weather Roundup
Issued by NWS

Home | Current Version | Previous Version | Text Only | Print | Product List | Glossary Off
Versions: 1 2 3 4 5 6 7 8 9 10 11 12 13 14 15 16 17 18 19 20 21 22 23 24 25 26 27 28 29 30 31 32 33 34 35 36 37 38 39 40 41 42 43 44 45 46 47 48 49 50

337
ASUS43 KBIS 241310
RWRND

NORTH DAKOTA REGIONAL WEATHER ROUNDUP
NATIONAL WEATHER SERVICE BISMARCK ND
800 AM CDT SAT SEP 24 2016

NOTE: "FAIR" INDICATES FEW OR NO CLOUDS BELOW 12,000 FEET WITH NO
SIGNIFICANT WEATHER AND/OR OBSTRUCTIONS TO VISIBILITY.


NDZ001>003-009>011-017-241400-
NORTHWEST NORTH DAKOTA

CITY           SKY/WX    TMP DP  RH WIND       PRES   REMARKS
WILLISTON      CLOUDY    55  54  96 NW5       29.80R
MINOT          FOG       61  61 100 N5        29.76S VSB 1/2
MINOT AFB      FOG       60  60  99 E5        29.75F VSB<1/4
$$

NDZ018>021-031>035-040>046-241400-
SOUTHWEST NORTH DAKOTA

CITY           SKY/WX    TMP DP  RH WIND       PRES   REMARKS
BISMARCK       CLOUDY    61  60  97 NE9       29.71F
DICKINSON      FOG       56  56 100 N9        29.70F VSB 1/4
GARRISON         N/A     62  62 100 CALM      29.75S
HETTINGER ARPT FOG       58  57  97 NE10      29.72R VSB 1/4
$$

NDZ004>008-012>016-024-026-027-054-241400-
NORTHEAST NORTH DAKOTA

CITY           SKY/WX    TMP DP  RH WIND       PRES   REMARKS
GRAND FORKS    CLOUDY    64  61  90 SE18      29.88F
GRND FRKS AFB  CLOUDY    63  63 100 SE12      29.88F
DEVILS LAKE    CLOUDY    62  61  96 SE14      29.83F FOG
$$

NDZ022-023-025-028>030-036>039-047>053-241400-
SOUTHEAST NORTH DAKOTA

CITY           SKY/WX    TMP DP  RH WIND       PRES   REMARKS
FARGO          CLOUDY    69  64  84 SE16G29   29.89S
JAMESTOWN      CLEAR     65  64  97 SE14G23   29.81S
$$





USA.gov is the U.S. government's official web portal to all federal, state and local government web resources and services.